[[{"header":{"parameterUnit":"m.s-1","parameterCategory":1,"la1":30.2991,"la2":30.254,"lo1":-89.0895,"lo2":-89.0444,"dy":0.0017,"dx":0.0017,"nx":28,"ny":28,"refTime":"2025-08-13T21:00:00:Z","depth":0,"parameterNumber":2,"parameterNumberName":"U-component_of_WINDS"},"data":[0,0,0,0,0,0,0,0,0,0,0,0,0,0,0,0,0,0,0,0,0,0,0,0,0,0,0,0,0,0,0,0,0,0,0,0,0,0,0,0,0,0,0,0,0,0,0,0,0,0,0,0,0,0,0,0,0,0,2.3534,2.3534,0,2.3535,2.3535,2.3535,2.3417,2.3414,2.3411,2.3408,2.3413,2.3416,2.3419,0,0,0,0,0,0,0,0,0,0,0,0,0,2.3436,2.3438,2.3534,2.3534,2.3534,2.3535,2.3535,2.3535,2.3418,2.3414,2.341,2.3407,2.3412,2.3416,2.3419,0,0,0,0,0,0,0,0,0,0,0,0,0,2.3462,2.3439,2.3534,2.3476,2.347,2.3535,2.3535,2.3535,2.3419,2.3414,2.3409,2.3405,2.3411,2.3415,2.342,2.3542,0,0,2.3434,2.3436,0,0,0,0,0,0,0,0,2.3461,2.3466,2.3484,2.348,2.3474,2.3471,2.3502,2.3537,2.342,2.3438,2.3408,2.3403,2.3437,2.3439,2.3449,2.3542,2.3542,2.3434,2.3437,2.3439,2.344,0,0,0,0,0,0,0,2.3459,2.3465,2.3534,2.3485,2.3478,2.3451,2.345,2.3508,2.3464,2.3436,2.3428,2.3429,2.3433,2.3445,2.3449,2.3542,2.3434,2.3438,2.3441,2.3443,2.3737,2.3742,0,0,0,0,0,0,2.3465,2.3464,2.3534,2.3534,2.3456,2.3457,2.3455,2.3477,2.3463,2.3456,2.3433,2.3424,2.344,2.3443,2.3448,2.3591,2.3439,2.3443,2.3446,2.3732,2.3738,2.3743,0,0,0,0,0,0,2.3463,2.3472,2.3534,2.3497,2.3503,2.3463,2.3489,2.3479,2.3491,2.346,2.3452,2.3454,2.3436,2.3442,2.3519,2.3589,2.3445,2.3449,2.3726,2.3734,2.3741,2.3877,0,0,0,0,0,0,2.3461,2.3472,2.3516,2.3499,2.3505,2.3604,2.3493,2.3483,2.3499,2.3487,2.3477,2.3471,2.3433,2.3513,2.3524,2.3593,2.3453,2.3719,2.3729,2.3738,2.3866,2.3888,2.3907,0,0,0,0,0,2.3457,2.3555,2.3519,2.3528,2.356,2.3609,2.3612,2.3565,2.3505,2.355,2.3531,2.3472,2.358,2.3522,2.3533,2.3605,2.3715,2.3726,2.3738,2.3857,2.3884,2.3907,0,0,0,0,0,0,2.3583,2.3552,2.3512,2.3606,2.3611,2.3589,2.3644,2.3595,2.3617,2.3605,2.3546,2.3545,2.3633,2.3626,2.3563,2.3723,2.3637,2.3651,2.3724,2.3749,2.377,2.377,2.3457,0,0,0,0,0,2.3622,2.3662,2.3633,2.372,2.3724,2.3684,2.3704,2.3667,2.367,2.3671,2.3657,2.3664,2.3699,2.3724,2.3755,2.3864,2.3862,2.3919,2.394,2.3957,2.397,2.403,2.4056,2.3781,2.3781,2.3781,0,0,2.3702,2.369,2.3719,2.3745,2.3744,2.3789,2.3687,2.3738,2.3772,2.3679,2.3752,2.3742,2.3746,2.3841,2.3882,2.3838,2.4046,2.3972,2.3986,2.399,2.4045,2.4071,2.4094,2.3789,2.3787,2.3786,0,0,2.3871,2.3866,2.3938,2.3939,2.3939,2.3912,2.393,2.3916,2.3905,2.3977,2.3909,2.3949,2.4011,2.4017,2.4028,2.4202,2.4149,2.4214,2.4322,2.4381,2.4403,2.4422,2.4485,2.4509,2.4227,2.4227,2.4228,0,2.3972,2.4035,2.3982,2.4038,2.4052,2.397,2.4044,2.4048,2.4059,2.4072,2.4022,2.41,2.4096,2.4192,2.4235,2.4246,2.4266,2.4215,2.4404,2.4422,2.4439,2.4499,2.4523,2.4235,2.4234,2.4234,2.4233,0,2.416,2.4205,2.4264,2.4276,2.4296,2.4362,2.4319,2.4347,2.4309,2.4288,2.4364,2.4357,2.4385,2.4405,2.4369,2.4497,2.447,2.4413,2.4326,2.4474,2.453,2.4552,2.4247,2.4244,2.4241,2.4239,0,0,2.4407,2.4389,2.4412,2.4417,2.4412,2.4447,2.451,2.4537,2.4563,2.4574,2.4626,2.4681,2.4629,2.4642,2.4605,2.4657,2.4798,2.4593,2.4593,2.4633,2.4941,2.4985,2.5012,2.4762,2.4766,2.477,2.4941,0,2.4573,2.4676,2.4631,2.4741,2.4783,2.4707,2.4762,2.4766,2.4749,2.4784,2.4765,2.4806,2.4732,2.474,2.4788,2.477,2.4859,2.4757,2.4812,2.4815,2.4815,2.5041,2.5086,2.5248,2.4962,2.4966,2.4969,0,2.4779,2.4798,2.4912,2.49,2.4917,2.4967,2.4989,2.5023,2.5027,2.5011,2.5026,2.4979,2.5042,2.4955,2.5041,2.4973,2.4993,2.4989,2.4994,2.4998,2.4901,2.5052,2.5299,2.5324,2.5002,2.4999,2.4997,0,2.495,2.5004,2.5079,2.5086,2.5075,2.5112,2.5109,2.5108,2.5128,2.5149,2.5161,2.5189,2.5205,2.5229,2.5191,2.5131,2.5284,2.5193,2.5274,2.5276,2.531,2.5309,2.5565,2.5322,2.5322,2.5321,2.5321,0,2.5139,2.5213,2.5156,2.5203,2.5283,2.5231,2.5313,2.5302,2.5302,2.5347,2.5283,2.5327,2.5274,2.5313,2.5284,2.5362,2.5369,2.5359,2.5351,2.5366,2.5367,2.5378,2.5367,2.5328,2.5326,2.5325,2.5324,0,2.5344,2.5309,2.5386,2.537,2.5367,2.5428,2.5414,2.5458,2.5436,2.5494,2.5504,2.5472,2.5515,2.5479,2.5521,2.5502,2.5605,2.558,2.5604,2.5597,2.5681,2.5674,2.5954,2.5989,2.5723,2.5725,2.5728,0,2.5468,2.5522,2.5511,2.5536,2.5537,2.5578,2.5598,2.555,2.5574,2.5584,2.5627,2.5665,2.5692,2.5765,2.5746,2.5779,2.5755,2.5851,2.5759,2.5773,2.5758,2.5756,2.5762,2.5869,2.5873,2.5875,2.5877,0,2.5691,2.5672,2.5702,2.5729,2.5754,2.5772,2.5786,2.581,2.5761,2.5792,2.5835,2.5856,2.5899,2.5938,2.5965,2.5964,2.5914,2.5906,2.5927,2.5943,2.5955,2.5951,2.5656,2.59,2.5898,2.5896,2.5895,2.5894,2.586,2.5905,2.5905,2.5943,2.5948,2.5962,2.6003,2.5987,2.6021,2.6052,2.6022,2.6075,2.6079,2.6109,2.6115,2.6157,2.6117,2.6147,2.6154,2.6163,2.6175,2.5948,2.6161,2.616,2.616,2.6159,2.6159,0,2.6081,2.6078,2.6112,2.6133,2.6163,2.6112,2.6125,2.6154,2.6201,2.6209,2.6238,2.6288,2.6326,2.6311,2.6345,2.6382,2.636,2.6392,2.639,2.6391,2.6208,2.6187,2.641,2.6409,2.6409,2.6409,2.6409,2.6409,2.62,2.6275,2.6256,2.6334,2.633,2.638,2.6392,2.6406,2.6413,2.6472,2.6503,2.6492,2.6492,2.6525,2.6559,2.6553,2.657,2.6611,2.6598,2.6428,2.6403,2.638,2.636,2.6615,2.6615,2.6777,2.6778,2.6779]},{"header":{"parameterUnit":"m.s-1","parameterCategory":1,"la1":30.2991,"la2":30.254,"lo1":-89.0895,"lo2":-89.0444,"dy":0.0017,"dx":0.0017,"nx":28,"ny":28,"refTime":"2025-08-13T21:00:00:Z","depth":0,"parameterNumber":3,"parameterNumberName":"V-component_of_WINDS"},"data":[0,0,0,0,0,0,0,0,0,0,0,0,0,0,0,0,0,0,0,0,0,0,0,0,0,0,0,0,0,0,0,0,0,0,0,0,0,0,0,0,0,0,0,0,0,0,0,0,0,0,0,0,0,0,0,0,0,0,1.5448,1.5449,0,1.5526,1.5527,1.5528,1.5572,1.5572,1.5572,1.5572,1.565,1.5652,1.5654,0,0,0,0,0,0,0,0,0,0,0,0,0,1.5337,1.5339,1.5448,1.5449,1.545,1.5526,1.5527,1.5528,1.5572,1.5572,1.5572,1.5572,1.565,1.5652,1.5654,0,0,0,0,0,0,0,0,0,0,0,0,0,1.5397,1.5339,1.5448,1.5481,1.5485,1.5526,1.5527,1.5528,1.5572,1.5572,1.5572,1.5572,1.5649,1.5652,1.5655,1.5668,0,0,1.5664,1.5665,0,0,0,0,0,0,0,0,1.5394,1.5401,1.5475,1.5479,1.5483,1.554,1.5516,1.5575,1.5572,1.5539,1.5572,1.5573,1.5613,1.5619,1.5633,1.5672,1.5675,1.5664,1.5666,1.5667,1.5668,0,0,0,0,0,0,0,1.5389,1.5398,1.5479,1.5476,1.5481,1.5492,1.5501,1.5528,1.5574,1.5542,1.5545,1.5554,1.5615,1.563,1.5635,1.5676,1.5664,1.5666,1.5668,1.5669,1.573,1.573,0,0,0,0,0,0,1.538,1.5394,1.5477,1.5481,1.5438,1.5494,1.5504,1.5521,1.5574,1.5582,1.5553,1.5556,1.5625,1.5632,1.5638,1.5658,1.5667,1.567,1.5671,1.573,1.573,1.573,0,0,0,0,0,0,1.5378,1.5387,1.5473,1.5439,1.5451,1.5495,1.5515,1.5523,1.5538,1.5583,1.5591,1.556,1.5626,1.5634,1.5661,1.5661,1.5671,1.5674,1.5731,1.573,1.573,1.5696,0,0,0,0,0,0,1.5374,1.5386,1.5391,1.5439,1.5452,1.5495,1.5515,1.5524,1.5543,1.5546,1.5591,1.5599,1.5626,1.5656,1.5663,1.5665,1.5676,1.5731,1.5731,1.573,1.5698,1.5695,1.5693,0,0,0,0,0,1.537,1.5378,1.5392,1.5401,1.546,1.5494,1.5502,1.5534,1.5542,1.5548,1.5577,1.5597,1.566,1.5658,1.5667,1.567,1.5731,1.5731,1.573,1.5699,1.5696,1.5693,0,0,0,0,0,0,1.5329,1.5385,1.54,1.5424,1.5454,1.5502,1.551,1.553,1.5558,1.556,1.5599,1.5608,1.5631,1.5653,1.5651,1.5686,1.5698,1.5699,1.567,1.5668,1.5665,1.566,1.5678,0,0,0,0,0,1.5323,1.5347,1.5394,1.541,1.5425,1.5465,1.5481,1.5503,1.5536,1.5549,1.558,1.561,1.5637,1.5654,1.5681,1.5701,1.5712,1.5707,1.5705,1.5703,1.5703,1.5716,1.5715,1.5729,1.5729,1.5729,0,0,1.5311,1.5344,1.5356,1.5403,1.5429,1.5452,1.5475,1.5499,1.5516,1.5552,1.5579,1.5603,1.564,1.5663,1.5675,1.5682,1.5702,1.5702,1.57,1.5702,1.5716,1.5715,1.5713,1.5729,1.5729,1.5729,0,0,1.53,1.5327,1.5344,1.537,1.541,1.5436,1.544,1.5485,1.5503,1.5531,1.5558,1.5579,1.5624,1.565,1.5668,1.5668,1.5687,1.5675,1.5663,1.5675,1.5674,1.5673,1.5673,1.5673,1.5676,1.5676,1.5676,0,1.5279,1.5315,1.535,1.5373,1.5393,1.5427,1.5444,1.5468,1.5513,1.5526,1.5534,1.5592,1.5619,1.5649,1.5649,1.5663,1.5669,1.567,1.5671,1.5671,1.5671,1.5671,1.5671,1.5674,1.5674,1.5675,1.5675,0,1.5288,1.5313,1.5322,1.5366,1.5387,1.5407,1.5445,1.5462,1.5482,1.5508,1.5536,1.557,1.5605,1.5614,1.5634,1.5647,1.565,1.5664,1.5677,1.5667,1.5668,1.5669,1.5672,1.5673,1.5673,1.5673,0,0,1.5253,1.5317,1.532,1.5341,1.5387,1.5407,1.5428,1.5463,1.5477,1.5507,1.5526,1.5564,1.5577,1.5598,1.5622,1.5632,1.563,1.5645,1.5646,1.5641,1.5647,1.5637,1.5637,1.5644,1.5644,1.5644,1.5644,0,1.5249,1.5289,1.5322,1.535,1.5374,1.5407,1.5426,1.5456,1.5481,1.5504,1.5532,1.5558,1.5573,1.5586,1.5599,1.5628,1.5632,1.5628,1.5661,1.5662,1.5651,1.5637,1.5626,1.5625,1.5645,1.5645,1.5645,0,1.5249,1.5279,1.531,1.5355,1.5366,1.5382,1.5417,1.5439,1.5474,1.5492,1.5516,1.554,1.5564,1.5575,1.5609,1.5605,1.5621,1.5637,1.5638,1.5642,1.5653,1.5641,1.5625,1.5625,1.5646,1.5646,1.5646,0,1.5221,1.5269,1.5294,1.5311,1.5363,1.5374,1.5396,1.5432,1.5451,1.5481,1.5494,1.5526,1.5544,1.5568,1.5601,1.5605,1.5631,1.5644,1.5647,1.5646,1.565,1.565,1.5637,1.566,1.566,1.566,1.566,0,1.5212,1.523,1.5282,1.5297,1.5318,1.5355,1.5375,1.54,1.5431,1.5452,1.5483,1.5501,1.5543,1.5567,1.5593,1.5617,1.5625,1.5639,1.5646,1.5637,1.5635,1.5647,1.5648,1.566,1.566,1.566,1.566,0,1.5184,1.5219,1.5249,1.5297,1.5309,1.5322,1.5363,1.5379,1.5406,1.5432,1.544,1.5482,1.5512,1.5547,1.5588,1.5605,1.5627,1.5637,1.5616,1.5619,1.562,1.5619,1.5614,1.5616,1.5638,1.5637,1.5637,0,1.5176,1.5191,1.5241,1.5257,1.5279,1.5305,1.5325,1.5362,1.5381,1.5423,1.5434,1.5466,1.5494,1.554,1.5574,1.5605,1.5616,1.5612,1.5621,1.5611,1.5616,1.5615,1.5617,1.561,1.5609,1.5609,1.5609,0,1.5159,1.5176,1.5204,1.5238,1.5261,1.5289,1.5319,1.5331,1.5374,1.5394,1.5425,1.5447,1.5489,1.5521,1.5557,1.558,1.5601,1.5606,1.5608,1.5599,1.5586,1.5593,1.5609,1.5606,1.5606,1.5606,1.5606,1.5606,1.5141,1.5156,1.5194,1.5224,1.525,1.5277,1.5295,1.5325,1.5351,1.5389,1.5409,1.544,1.5476,1.5526,1.5549,1.5573,1.5581,1.5584,1.5584,1.5585,1.5582,1.5582,1.558,1.558,1.558,1.558,1.558,0,1.5126,1.5152,1.5179,1.522,1.5244,1.5263,1.5297,1.5316,1.5342,1.5374,1.5401,1.5437,1.5468,1.5505,1.5538,1.5551,1.5561,1.5558,1.5557,1.5563,1.5573,1.5568,1.5549,1.5549,1.5549,1.5549,1.5549,1.5549,1.5121,1.5147,1.5168,1.5208,1.5234,1.5265,1.5283,1.5308,1.5334,1.5373,1.5399,1.5423,1.5457,1.5493,1.5522,1.5532,1.5543,1.5537,1.555,1.5559,1.5562,1.5564,1.556,1.5539,1.5539,1.5537,1.5537,1.5537]}]]